RH
64 66 67 69 69 68 70 71 70 70 68 66 65 64 65 64 68 72 68 63 61 60 60 60 63 65 65 65 65 67 73 77 74 66 63 69 75 75 73 75 80 80
62 62 62 63 64 64 66 67 66 64 61 62 63 64 69 71 74 78 75 71 71 70 69 66 65 64 62 61 61 64 68 69 67 62 59 66 72 74 76 79 80 80
57 57 56 58 59 60 63 63 62 59 56 59 62 64 69 71 74 78 77 77 78 78 77 70 63 62 62 61 61 60 60 60 61 62 62 65 69 70 74 77 77 78
52 50 49 52 54 56 60 61 60 59 58 60 65 69 69 68 71 77 79 81 81 82 81 73 65 65 66 63 59 57 58 59 62 64 64 66 67 67 68 69 70 76
50 48 47 48 49 51 56 59 58 57 57 59 66 74 75 71 70 75 79 81 80 80 79 75 70 70 73 72 65 62 64 64 65 66 63 65 70 71 72 70 69 75
49 49 48 47 47 48 52 54 52 53 56 58 62 71 78 77 74 75 78 80 80 78 73 70 69 71 77 77 71 70 72 72 72 71 67 69 75 78 78 74 70 74
46 48 48 47 47 47 48 48 49 51 54 58 63 69 77 80 77 77 79 79 80 79 75 71 67 68 74 76 72 74 77 79 79 76 72 72 77 79 77 73 72 75
47 48 48 48 47 48 47 47 52 58 61 66 69 71 74 77 77 77 79 79 79 80 82 81 74 71 77 81 79 79 82 85 86 83 81 79 77 76 75 76 78 80
50 49 49 50 49 49 51 53 62 71 74 75 77 76 75 76 77 79 80 79 78 78 82 83 76 74 81 85 83 82 86 91 90 86 85 84 80 77 77 79 82 82
51 49 49 51 50 50 54 63 73 78 78 78 79 79 78 77 77 78 78 79 80 82 87 87 83 82 86 86 82 81 85 90 90 87 82 79 78 77 77 77 78 77
54 51 51 56 58 55 55 65 78 80 78 78 78 78 79 78 77 78 80 84 84 84 84 79 76 81 86 86 83 82 86 87 87 87 83 80 79 77 76 76 76 75
59 58 60 68 72 67 59 62 74 77 75 74 73 74 77 76 76 78 79 77 72 72 72 64 60 64 68 73 74 75 84 89 87 86 84 81 80 79 77 78 78 76
65 63 68 77 80 74 68 65 66 68 70 71 70 72 75 75 76 77 75 69 65 69 72 67 64 63 63 68 69 69 81 91 89 85 83 79 78 77 76 77 78 77
68 66 72 80 80 75 74 71 65 64 68 71 71 71 73 74 75 75 74 72 71 74 75 70 69 71 72 73 72 71 81 89 87 85 83 79 77 76 75 77 76 74
70 68 71 78 79 75 74 72 68 69 71 70 68 69 71 72 73 72 73 73 72 73 74 72 70 72 73 74 74 75 80 82 81 81 80 77 76 75 76 77 74 71
71 69 70 74 75 74 73 72 70 72 72 69 66 66 68 70 71 71 71 71 70 70 72 73 71 70 72 76 80 83 82 79 77 76 76 75 76 78 79 78 76 75
72 70 71 73 73 73 74 73 71 72 71 69 68 68 69 70 69 68 69 69 70 70 70 72 72 71 74 78 83 86 84 82 81 81 79 78 79 81 82 81 80 80
71 70 71 73 72 72 73 73 73 72 71 69 69 70 71 71 69 68 69 70 72 71 69 70 71 71 73 77 82 85 85 84 84 84 84 83 81 80 80 80 79 77
69 70 70 70 70 72 74 75 73 73 72 71 71 72 72 73 73 71 70 71 72 72 71 71 71 70 71 73 77 80 83 84 84 84 84 84 83 81 81 80 78 76
67 70 69 68 69 71 75 77 75 74 74 73 73 73 73 74 75 74 73 73 74 74 75 75 73 71 70 71 74 79 81 82 82 82 84 85 85 85 83 81 80 78
65 68 68 69 71 72 75 79 78 75 75 76 76 76 75 76 77 76 75 75 76 77 78 79 78 75 72 69 72 78 80 78 79 82 84 85 85 85 84 83 83 81
63 65 68 71 72 71 71 75 78 77 77 78 78 79 81 82 82 81 80 77 75 76 79 82 82 79 76 73 72 77 79 78 81 85 85 85 84 85 85 84 82 82
63 65 68 68 68 68 66 67 73 78 79 80 83 87 90 91 89 87 85 81 78 77 79 83 85 84 82 78 75 77 81 84 88 90 88 87 88 87 85 83 83 86
58 59 66 70 69 68 67 65 68 73 79 86 94 96 94 93 94 93 92 89 87 87 89 89 89 87 85 83 82 82 84 90 95 95 91 91 90 86 84 85 87 87
53 53 67 79 79 77 77 79 79 83 87 91 95 95 94 95 98 99 99 97 95 95 96 95 95 93 89 86 87 88 88 93 98 98 95 95 92 87 85 85 82 74
63 66 80 90 89 86 89 94 96 97 97 93 90 93 96 96 97 99 100 100 100 99 99 99 99 98 96 94 95 97 98 98 100 99 96 94 92 85 77 71 63 50
Wind_Speed
23 23 22 20 19 19 18 17 15 14 14 13 12 11 12 12 11 10 10 11 11 10 10 11 11 11 11 12 12 11 9 10 10 8 6 7 7 6 6 6 6 5
24 23 23 21 20 19 18 16 15 15 14 13 13 13 12 12 11 10 10 11 10 9 10 11 11 11 11 11 11 11 11 12 12 10 8 8 8 8 7 7 7 7
26 23 23 22 20 19 17 15 15 15 14 14 14 14 14 14 13 12 12 11 10 9 10 12 11 11 11 12 12 11 12 12 11 10 10 10 10 9 8 7 7 7
27 24 22 21 20 18 17 16 16 15 14 14 14 13 13 14 15 14 13 12 12 11 12 12 12 11 10 11 12 12 11 11 11 10 11 10 10 10 9 8 7 7
27 25 22 21 20 19 17 17 16 16 16 16 15 13 12 14 16 16 14 14 14 14 14 13 13 12 11 11 12 11 10 11 10 10 10 10 9 9 8 8 9 8
27 25 23 22 21 20 19 18 17 16 17 16 15 14 13 14 16 16 15 15 16 16 15 15 14 13 11 11 12 11 9 9 9 9 10 9 8 8 7 8 9 9
28 26 25 23 22 21 21 20 18 17 18 17 16 15 15 16 17 16 15 16 16 16 15 14 14 13 11 10 11 10 8 8 8 9 9 8 7 8 8 8 9 9
27 26 25 24 23 22 21 20 19 17 16 17 16 15 15 16 17 16 16 16 16 16 14 14 14 14 12 10 10 9 8 7 8 8 8 8 8 9 9 9 8 8
27 26 25 24 23 22 20 19 18 15 15 16 15 14 14 16 16 17 17 18 17 16 14 13 14 13 11 11 11 10 9 9 9 8 8 9 9 9 9 8 7 7
27 26 26 25 24 23 21 19 18 16 16 17 17 17 17 18 18 18 20 20 19 19 18 15 15 14 12 11 12 12 11 11 11 9 8 9 9 8 8 8 7 6
27 26 25 24 22 22 22 21 20 19 19 19 20 21 20 21 21 21 22 22 20 19 17 14 14 15 14 13 14 15 14 13 11 9 9 9 8 7 7 6 5 5
26 26 25 22 20 20 21 23 23 22 22 21 20 20 21 23 24 23 21 20 18 16 15 13 13 15 14 14 15 15 15 13 11 10 10 9 8 7 7 5 4 5
24 25 25 22 20 18 18 20 22 21 20 18 17 18 19 22 22 21 19 19 17 16 16 15 15 15 14 13 13 13 14 13 12 10 9 8 8 8 8 7 5 5
23 24 25 24 21 18 16 18 19 19 17 16 16 18 19 20 20 19 20 20 18 16 16 16 16 16 15 14 13 13 13 13 12 10 8 7 7 7 7 7 7 6
24 23 24 24 23 19 17 17 18 18 17 17 18 20 20 21 21 20 20 20 18 17 17 17 15 15 15 14 13 12 12 13 13 12 10 7 5 6 6 7 7 7
26 25 23 24 23 21 19 17 18 19 19 18 18 20 21 21 21 21 21 20 18 16 17 16 15 14 14 14 14 13 13 14 14 13 12 9 7 7 8 8 8 8
30 28 25 24 23 21 20 18 18 20 21 20 19 20 21 20 20 20 19 18 18 17 16 16 16 15 15 14 14 14 14 14 14 14 13 11 11 11 10 9 9 9
33 31 28 27 26 23 22 21 20 21 23 24 23 22 21 19 19 19 18 18 18 18 17 16 16 16 16 16 15 15 15 15 15 16 15 13 14 14 13 12 11 10
33 33 30 29 27 25 24 23 23 23 24 25 25 24 23 22 21 20 19 18 18 18 18 17 17 16 16 17 17 17 17 17 17 18 17 16 16 16 14 13 12 12
33 33 30 28 27 26 25 24 24 24 24 25 26 26 26 25 23 22 21 20 19 19 18 18 18 18 17 17 18 19 19 18 19 20 20 19 18 17 15 14 13 14
31 31 29 28 27 28 28 27 27 26 25 26 27 27 27 25 24 24 22 21 21 21 20 19 19 19 18 17 18 20 20 20 20 21 21 21 20 19 17 15 15 15
30 30 29 28 28 29 29 29 29 29 28 28 28 27 26 25 24 24 23 23 23 22 22 22 21 21 21 20 20 22 21 20 20 21 22 21 21 19 16 15 15 15
28 29 28 27 27 28 29 29 30 30 28 28 29 29 28 26 23 22 22 22 22 23 23 24 23 24 24 23 23 23 22 21 20 21 22 22 20 17 15 15 14 13
26 27 27 27 27 27 28 29 30 31 30 28 26 25 23 22 22 21 22 22 22 23 24 25 25 26 26 25 26 25 24 22 21 22 23 22 19 16 14 13 11 9
27 27 28 28 28 27 28 28 30 31 29 26 22 18 16 17 18 20 23 25 26 25 24 25 26 27 27 27 27 27 26 26 25 23 21 19 17 15 12 8 6 4
28 28 29 29 28 27 26 27 28 26 21 20 21 21 19 18 18 18 20 24 28 29 27 26 25 26 28 29 28 28 27 25 24 23 20 17 14 10 6 5 4 2
Wind_Direction
199 201 208 212 215 214 213 215 214 214 219 222 222 223 220 210 206 212 214 211 213 216 221 225 224 224 225 228 233 235 237 243 244 246 251 246 245 251 241 228 230 247
205 206 211 215 216 214 213 215 217 219 220 225 227 227 227 218 212 215 211 209 217 224 228 232 229 226 228 230 233 235 236 242 246 253 260 253 248 249 240 230 235 246
210 211 212 215 217 214 213 214 217 221 222 224 225 226 228 228 223 220 217 220 231 238 239 237 230 226 229 232 237 239 239 243 247 252 257 252 249 250 251 252 255 251
213 216 215 215 215 214 214 215 218 221 223 222 221 222 226 228 227 224 225 230 237 242 243 239 230 225 227 234 239 241 242 242 242 246 251 249 249 255 263 264 256 240
214 218 218 216 216 216 216 219 220 223 225 224 218 217 224 228 226 225 228 234 240 243 241 237 231 224 228 238 239 237 235 235 236 240 242 241 244 251 256 253 240 231
215 218 219 219 218 219 220 223 226 227 230 230 224 220 224 228 229 228 232 236 241 244 243 240 235 229 231 237 237 235 231 231 235 239 240 239 238 239 241 241 239 240
216 218 220 220 220 221 224 227 230 230 231 233 232 227 224 227 230 231 235 238 239 243 246 245 243 240 238 240 243 239 231 233 243 248 252 252 246 245 252 259 261 260
219 220 221 222 222 223 225 226 226 226 227 229 231 233 230 225 226 230 237 241 240 241 243 247 247 239 234 242 247 237 229 241 252 255 260 262 259 258 263 269 272 273
220 221 222 223 223 223 224 222 219 220 225 228 228 234 236 231 228 231 238 243 246 245 243 245 244 232 227 242 250 241 236 246 255 257 261 263 263 263 261 262 267 272
221 221 222 224 225 225 222 218 218 224 233 237 235 234 238 240 239 238 241 243 244 240 235 235 231 224 224 237 249 249 242 245 255 263 265 262 262 262 257 256 260 264
221 221 221 223 225 227 224 219 220 226 232 237 237 234 237 242 243 241 238 238 238 238 239 240 240 239 235 230 236 242 241 245 256 261 262 259 257 257 250 245 251 260
220 221 220 220 223 227 225 220 219 225 231 234 234 232 235 241 243 242 241 243 250 252 250 250 251 253 246 233 232 236 238 243 252 258 260 257 255 256 247 241 254 267
219 219 218 218 222 226 225 223 222 223 225 228 230 231 236 240 242 245 250 255 258 255 254 255 253 250 243 236 238 239 238 242 250 256 259 257 258 258 255 256 264 265
218 219 217 217 223 226 225 223 220 215 217 224 230 235 239 242 244 247 251 255 255 252 256 259 251 241 235 235 238 237 237 243 247 248 250 253 255 249 246 252 252 247
218 218 216 217 223 226 223 218 214 215 225 234 237 238 240 242 247 250 250 251 253 251 252 254 249 240 233 233 233 229 233 239 238 234 234 233 227 222 226 237 244 250
221 219 216 217 221 224 224 221 219 225 233 237 236 238 240 243 247 248 247 248 251 251 249 249 249 242 234 232 233 232 235 237 233 231 230 221 207 210 224 235 245 255
223 219 214 217 220 222 225 224 224 229 234 233 231 233 238 242 243 242 244 247 248 250 250 249 249 245 238 235 235 236 237 235 233 234 232 224 214 215 223 230 237 245
220 215 212 214 218 220 223 223 222 226 231 232 232 234 238 241 240 239 243 245 246 249 250 250 250 246 239 236 235 235 237 237 236 237 236 229 225 226 227 229 235 250
214 212 212 215 219 221 223 224 223 224 228 231 233 236 239 242 242 240 241 242 245 249 250 249 249 249 246 243 241 238 239 241 241 241 239 235 232 232 233 236 248 263
210 211 216 221 224 222 221 225 228 227 228 231 235 237 239 241 242 241 239 241 246 250 250 247 247 248 248 246 243 241 240 243 243 241 239 235 233 234 237 245 258 269
211 212 218 225 226 223 221 225 230 231 230 232 234 236 239 242 243 243 243 244 248 250 250 248 246 245 246 245 244 241 239 239 239 237 236 234 232 234 239 250 262 270
213 213 217 223 224 222 222 225 229 232 232 233 234 234 235 236 236 239 241 242 244 245 245 245 243 241 242 243 241 237 235 235 235 234 234 233 231 232 241 253 260 263
212 212 215 219 222 224 226 228 230 232 233 234 234 231 228 228 229 232 236 239 242 242 241 240 239 238 238 238 237 233 231 230 232 233 233 230 230 234 242 249 252 256
212 214 215 219 223 227 229 231 233 234 233 231 231 225 220 226 235 236 236 237 237 237 236 235 236 237 235 233 231 228 225 224 225 229 230 227 228 231 234 239 247 257
215 218 218 219 223 226 229 233 235 235 230 226 232 236 230 231 238 239 238 237 235 233 233 232 233 235 234 232 229 225 222 220 220 222 220 215 214 219 223 227 238 254
214 217 219 220 223 226 231 233 234 233 229 226 236 248 249 245 247 245 237 232 229 226 223 222 223 224 224 224 223 221 219 215 212 210 202 192 192 199 197 188 195 189